PROGRESS-MS 08

Last updated on Thu Aug 30 2018 00:06:50 GMT+0000 (Coordinated Universal Time)

1 43211U 18019A 18241.87828412 .00010714 00000-0 10861-3 0 9998 2 43211 51.6425 10.9156 0040875 270.9965 232.0473 15.64846262 30738
UTC large
Height (km)
Speed (km/s)
/
Latitude / Longitude
Inclination (degrees)
Orbital Period (minutes)
Azimuth
Elevation
Range (km)
Doppler Factor

Next 0 passes for location: London (51.5072 / 0.1276)

Sorry there are no passes over London.